TimeMDT,TemperatureF,Dew PointF,Humidity,Sea Level PressureIn,VisibilityMPH,Wind Direction,Wind SpeedMPH,Gust SpeedMPH,PrecipitationIn,Events,Conditions,WindDirDegrees,DateUTC
12:53 AM,50.0,46.0,86,29.75,10.0,SSW,6.9,-,N/A,,Overcast,210,2013-05-29 06:53:00
1:53 AM,48.9,46.0,90,29.74,10.0,SSW,8.1,-,N/A,,Overcast,210,2013-05-29 07:53:00
2:53 AM,48.9,46.0,90,29.73,10.0,SW,4.6,-,N/A,,Overcast,220,2013-05-29 08:53:00
3:53 AM,48.0,46.0,93,29.72,10.0,Calm,Calm,-,N/A,,Overcast,0,2013-05-29 09:53:00
4:53 AM,46.0,43.0,89,29.70,10.0,SSW,4.6,-,N/A,,Mostly Cloudy,200,2013-05-29 10:53:00
5:53 AM,46.9,44.1,90,29.70,10.0,SW,3.5,-,N/A,,Scattered Clouds,220,2013-05-29 11:53:00
6:53 AM,46.9,45.0,93,29.71,10.0,WSW,3.5,-,N/A,,Overcast,240,2013-05-29 12:53:00
7:53 AM,48.9,46.9,93,29.71,10.0,WSW,4.6,-,N/A,,Clear,240,2013-05-29 13:53:00
8:53 AM,51.1,46.9,86,29.71,10.0,West,4.6,-,N/A,,Overcast,270,2013-05-29 14:53:00
9:53 AM,52.0,48.0,86,29.71,10.0,WNW,3.5,-,0.00,Rain,Light Rain,290,2013-05-29 15:53:00
10:53 AM,55.0,48.0,77,29.71,10.0,Calm,Calm,-,0.00,,Overcast,0,2013-05-29 16:53:00
11:50 AM,84.2,69.8,62,30.07,10.0,SSE,10.4,16.1,N/A,,Mostly Cloudy,160,2013-05-29 17:50:00
11:53 AM,55.9,48.0,75,29.71,10.0,East,5.8,-,N/A,,Overcast,90,2013-05-29 17:53:00
12:53 PM,61.0,48.0,62,29.68,10.0,NE,5.8,-,N/A,,Overcast,50,2013-05-29 18:53:00
1:53 PM,60.1,46.0,60,29.67,10.0,East,8.1,-,N/A,,Mostly Cloudy,80,2013-05-29 19:53:00
2:53 PM,54.0,46.9,77,29.70,10.0,West,11.5,-,0.01,Rain,Light Rain,280,2013-05-29 20:53:00
3:53 PM,52.0,46.9,83,29.72,10.0,North,10.4,-,0.00,Rain,Light Rain,360,2013-05-29 21:53:00
4:53 PM,55.9,48.9,77,29.71,10.0,NNE,11.5,-,0.00,,Mostly Cloudy,30,2013-05-29 22:53:00
5:53 PM,55.0,48.0,77,29.69,10.0,East,10.4,-,N/A,,Overcast,90,2013-05-29 23:53:00
6:53 PM,55.0,46.9,74,29.68,10.0,SE,9.2,-,N/A,,Overcast,130,2013-05-30 00:53:00
7:53 PM,55.0,46.0,72,29.70,10.0,Calm,Calm,-,N/A,,Overcast,0,2013-05-30 01:53:00
8:53 PM,53.1,48.9,86,29.70,10.0,WNW,3.5,-,0.00,,Overcast,290,2013-05-30 02:53:00
9:53 PM,52.0,48.0,86,29.70,10.0,Calm,Calm,-,N/A,,Overcast,0,2013-05-30 03:53:00
10:53 PM,52.0,48.0,86,29.70,10.0,NE,3.5,-,N/A,,Mostly Cloudy,40,2013-05-30 04:53:00
11:53 PM,51.1,48.0,89,29.71,10.0,Calm,Calm,-,N/A,,Overcast,0,2013-05-30 05:53:00